星链-3561 (STARLINK-3561 )

导读

STARLINK-3561是美国SpaceX公司星链(Starlink)星座的一员,于2022年4月21日发射升空。作为低轨通信卫星,它采用平板设计,搭载Ku/Ka波段通信载荷与氪工质霍尔推进器,具备自主避撞能力,旨在为全球提供宽带互联网服务,设计寿命约5-7年,退役后会再入大气层销毁,减少空间碎片威胁。

基本信息
目录编号:
52284
目录名称:
STARLINK-3561
国际标识:
2022-041Z
轨道中心:
EARTH
卫星名称:
星链-3561
卫星全名:
星链-3561 (STARLINK-3561 )
卫星状态:
在轨 (已飞行1597 天)
发射日期:
2022-04-21 UTC
国别 :
美国 (US)
星等 :
--
轨道信息
数据来源 国际轨道数据 AOE轨道数据
星历时间 2026-09-04T01:20:39+0800
14小时前
查看轨道信息
2026-09-01T08:00:00+0800
3天前
查看轨道信息
半长轴 6840.89km 6840.863km
偏心率 0.0001066 0.0000975
轨道倾角 53.161° 53.161°
近地点辐角 72.650° 68.442°
升交点赤经 10.507° 23.235°
平近点角 287.462° 3.735°
近地点 462.023km 462.059km
远地点 463.483km 463.393km
周期 93.849分钟 93.848分钟
每日圈数 15.343833 15.343926
详细信息
固有亮度:
5
最大亮度:
2.5
卫星平台:
Starlink v1.5
覆盖范围:
全球
运营商:
太空探索技术公司
运营商所在国:
美国
制造商(研发单位):
太空探索技术公司
制造商所在国:
美国
使用方式:
暂无
卫星简介
星链(Starlink)计划是由太空探索技术公司(SpaceX)提出的一个巨型低轨卫星互联网星座项目,计划在2019年至2024年间在太空搭建由约1.2万颗卫星组成的“星链”网络,其中1584颗将部署在地球上空550千米处的近地轨道,并从2020年开始工作。该卫星仍在工作。
2D轨道图
3D轨道图
轨道高度分析图
轨道倾角分析图
轨道综合分析图
查看轨道综合分析图
交会数据列表
事件ID 空间交会对象 最接近时刻(TCA) 交会距离 交会风险概率(CRP) 交会风险指数(CRI) 操作
CDM_260830-061605-228406-488124
OBJECT F (64881)
2026-08-30T
06:16:02+0000
0.817 km
远距离
5.33255E-5 中风险 0.7
CDM_260902-212005-228405-357021
2026-09-02T
21:20:48+0000
2.875 km
极远距离
7.690735E-7 极低风险 0.33
CDM_260903-130505-228405-317321
2026-09-03T
13:05:51+0000
2.967 km
极远距离
6.738192E-7 极低风险 0.32